Retour au catalogue

STARLINK-36539

ActifCommunicationsVLEO
NORAD 67446·PAYLOAD·🇺🇸 United States

Lancé Jan 14, 2026 depuis Cape Canaveral Space Force Station

Loading…

Prochains Passages (prochaines 24 heures)

TLE

FraisSource: CelesTrak SupGP

Époque: Sep 14, 2026, 23:14 UTC

1 67446C 26008B   26257.96854167 -.00011645  00000+0 -42145-3 0  2575
2 67446  43.0007 216.7514 0001619 265.8812 127.6808 15.27609288    19

Suivez STARLINK-36539 en temps réel avec AllMySat

Download on the App Store